Stations météo

Publicité
Laupheim, Allemagne (10837): Température de l'air & dewpoint: 17.09.2018 16:00:00 - 23.09.2018 16:00:00 (CEST)Laupheim, Allemagne (10837): Vitesse du vent & gusts: 17.09.2018 16:00:00 - 23.09.2018 16:00:00 (CEST)Laupheim, Allemagne (10837): Direction du vent: 17.09.2018 16:00:00 - 23.09.2018 16:00:00 (CEST)Laupheim, Allemagne (10837): reduced air pressure: 17.09.2018 16:00:00 - 23.09.2018 16:00:00 (CEST)Laupheim, Allemagne (10837): visibility: 17.09.2018 16:00:00 - 23.09.2018 16:00:00 (CEST)
Date & Time tt [°C] td [°C] ff [km/h] ff [knt] fx [km/h] fx [knt] dd ppp [hPa] vv [km]
23.09.2018 16:00:00 23,7 14,5 43 23 72 39 WSW 1008,9 40
23.09.2018 15:00:00 23,3 14,3 47 25 76 41 WSW 1010,5 40
23.09.2018 14:00:00 22,5 14,9 43 23 - - WSW 1012,0 40
23.09.2018 13:00:00 21,5 14,6 47 25 76 41 WSW 1013,1 30
23.09.2018 12:00:00 20,1 14,1 50 27 72 39 WSW 1013,9 10
23.09.2018 11:00:00 18,2 13,4 32 18 - - WSW 1015,2 30
23.09.2018 10:00:00 17,2 12,6 32 18 54 29 WSW 1015,5 30
23.09.2018 09:00:00 15,6 11,9 25 14 - - SW 1016,1 30
23.09.2018 08:00:00 13,9 11,3 18 10 - - SW 1016,6 30
23.09.2018 07:00:00 12,9 11,0 18 10 - - SW 1017,0 20
23.09.2018 06:00:00 11,6 10,3 11 6 - - SW 1018,3 10
23.09.2018 05:00:00 11,3 9,8 14 8 - - SW 1019,0 8
23.09.2018 04:00:00 11,4 9,3 14 8 - - SW 1019,9 17
23.09.2018 03:00:00 11,4 9,4 14 8 - - SW 1020,9 15
23.09.2018 02:00:00 11,2 9,5 14 8 - - SW 1021,9 8
23.09.2018 01:00:00 11,9 8,0 14 8 - - W 1022,0 12
23.09.2018 00:00:00 12,2 7,3 7 4 - - N 1021,5 15
22.09.2018 23:00:00 12,8 7,2 4 2 - - SW 1020,9 25
22.09.2018 22:00:00 14,0 4,7 4 2 - - NW 1020,7 18
22.09.2018 21:00:00 14,3 3,9 7 4 - - N 1020,7 25
22.09.2018 20:00:00 15,2 4,4 7 4 - - SW 1020,2 30
22.09.2018 19:00:00 16,0 3,1 11 6 - - SW 1019,9 30
22.09.2018 18:00:00 16,3 2,1 14 8 - - SW 1020,0 30
22.09.2018 17:00:00 16,7 1,5 22 12 - - WSW 1020,5 30
22.09.2018 16:00:00 16,7 3,2 14 8 - - SW 1020,8 30
22.09.2018 15:00:00 16,4 3,1 14 8 - - SW 1021,6 30
22.09.2018 14:00:00 14,7 4,8 14 8 - - WSW 1022,9 30
22.09.2018 13:00:00 14,2 4,7 11 6 - - SW 1023,6 30
22.09.2018 12:00:00 13,3 5,9 11 6 - - SW 1024,5 30
22.09.2018 11:00:00 12,3 6,9 11 6 - - WSW 1024,8 30
22.09.2018 10:00:00 11,2 7,4 7 4 - - W 1025,5 27
22.09.2018 09:00:00 10,1 7,0 7 4 - - WSW 1025,1 27
22.09.2018 08:00:00 9,2 6,5 4 2 - - WSW 1025,3 29
22.09.2018 07:00:00 9,5 5,8 7 4 - - SW 1024,6 27
22.09.2018 06:00:00 10,0 5,8 7 4 - - SW 1024,5 25
22.09.2018 05:00:00 10,4 5,9 11 6 - - SW 1024,1 25
22.09.2018 04:00:00 10,8 5,9 11 6 - - SW 1024,0 25
22.09.2018 03:00:00 11,4 6,3 14 8 - - WSW 1023,3 25
22.09.2018 02:00:00 11,6 6,6 14 8 - - SW 1022,8 25
22.09.2018 01:00:00 11,9 6,6 14 8 - - WSW 1022,6 25
22.09.2018 00:00:00 12,0 6,9 14 8 - - W 1021,5 25
21.09.2018 23:00:00 12,4 6,7 11 6 - - W 1020,6 25
21.09.2018 22:00:00 12,8 6,9 14 8 - - W 1019,2 25
21.09.2018 21:00:00 13,7 9,3 14 8 - - W 1018,2 25
21.09.2018 20:00:00 15,9 9,8 22 12 - - WNW 1015,3 40
21.09.2018 19:00:00 19,5 14,1 22 12 - - W 1011,9 30
21.09.2018 18:00:00 20,0 14,6 29 16 47 25 WSW 1011,0 28
21.09.2018 17:00:00 20,9 14,1 25 14 - - W 1010,8 20
21.09.2018 16:00:00 24,9 11,6 25 14 - - WSW 1009,3 27
21.09.2018 15:00:00 25,0 11,7 32 18 54 29 WSW 1010,0 27
21.09.2018 14:00:00 26,4 11,6 32 18 - - WSW 1009,9 27
21.09.2018 13:00:00 25,4 12,2 32 18 50 27 WSW 1010,8 28
21.09.2018 12:00:00 23,9 13,7 18 10 - - SW 1011,6 28
21.09.2018 11:00:00 21,7 13,7 14 8 - - SW 1012,6 25
21.09.2018 10:00:00 18,9 13,6 14 8 - - SW 1013,4 25
21.09.2018 09:00:00 15,7 12,0 11 6 - - SW 1014,3 25
21.09.2018 08:00:00 13,1 10,7 7 4 - - SW 1015,0 25
21.09.2018 07:00:00 12,4 10,3 7 4 - - WSW 1015,1 20
21.09.2018 06:00:00 12,5 10,6 4 2 - - SSW 1015,2 16
21.09.2018 05:00:00 12,9 10,6 7 4 - - S 1015,4 18
21.09.2018 04:00:00 12,9 10,7 7 4 - - WNW 1015,8 18
21.09.2018 03:00:00 14,0 10,9 4 2 - - WSW 1015,9 20
21.09.2018 02:00:00 14,4 11,2 4 2 - - SSW 1016,1 20
21.09.2018 01:00:00 15,5 11,5 4 2 - - SSW 1016,1 28
21.09.2018 00:00:00 16,4 11,9 4 2 - - SSW 1016,4 28
20.09.2018 23:00:00 17,8 12,0 2 1 - - N 1016,4 10
20.09.2018 22:00:00 20,7 10,9 4 2 - - SSE 1015,9 30
20.09.2018 21:00:00 21,9 11,2 7 4 - - SSE 1015,8 30
20.09.2018 20:00:00 23,1 10,8 7 4 - - SE 1015,6 30
20.09.2018 19:00:00 25,8 11,3 7 4 - - ESE 1015,0 30
20.09.2018 18:00:00 26,4 10,2 7 4 - - ESE 1015,1 30
20.09.2018 17:00:00 26,9 10,7 4 2 - - S 1015,6 30
20.09.2018 16:00:00 26,8 11,3 11 6 - - SW 1016,1 30
20.09.2018 15:00:00 26,1 10,5 11 6 - - SSW 1016,9 30
20.09.2018 14:00:00 25,9 11,6 7 4 - - S 1017,7 30
20.09.2018 13:00:00 25,0 13,2 11 6 - - SSW 1018,4 30
20.09.2018 12:00:00 22,9 14,1 7 4 - - SSW 1019,5 25
20.09.2018 11:00:00 20,7 13,7 11 6 - - SW 1020,6 25
20.09.2018 10:00:00 17,7 12,8 7 4 - - SW 1021,3 25
20.09.2018 09:00:00 15,1 12,0 7 4 - - SW 1021,7 20
20.09.2018 08:00:00 13,1 11,5 4 2 - - S 1021,9 20
20.09.2018 07:00:00 12,6 11,2 7 4 - - SSW 1022,0 20
20.09.2018 06:00:00 12,8 11,4 0 0 - - N 1021,7 20
20.09.2018 05:00:00 12,9 11,2 4 2 - - SW 1021,7 20
20.09.2018 04:00:00 14,0 11,7 4 2 - - SSW 1021,6 20
20.09.2018 03:00:00 14,5 11,9 4 2 - - N 1021,5 20
20.09.2018 02:00:00 15,1 12,0 4 2 - - S 1021,5 20
20.09.2018 01:00:00 15,6 12,2 4 2 - - N 1021,3 20
20.09.2018 00:00:00 16,1 12,2 4 2 - - SW 1021,4 20
19.09.2018 23:00:00 18,7 11,8 7 4 - - S 1020,7 30
19.09.2018 22:00:00 19,6 11,8 4 2 - - S 1020,5 30
19.09.2018 21:00:00 20,2 12,3 4 2 - - SSE 1020,0 30
19.09.2018 20:00:00 22,1 11,5 7 4 - - SSE 1019,3 40
19.09.2018 19:00:00 24,6 11,2 7 4 - - S 1018,5 35
19.09.2018 18:00:00 25,9 10,5 4 2 - - N 1018,0 40
19.09.2018 17:00:00 26,3 10,7 4 2 - - N 1018,0 40
19.09.2018 16:00:00 25,8 11,5 7 4 - - SW 1018,5 40
19.09.2018 15:00:00 25,5 12,2 7 4 - - SSW 1019,0 35
19.09.2018 14:00:00 24,1 13,5 4 2 - - SE 1019,6 30
19.09.2018 13:00:00 23,2 14,6 7 4 - - ENE 1020,1 30
19.09.2018 12:00:00 22,8 14,8 7 4 - - ESE 1020,5 30
19.09.2018 11:00:00 19,6 13,7 4 2 - - SSW 1021,5 25
19.09.2018 10:00:00 16,9 13,1 4 2 - - W 1021,7 25
19.09.2018 09:00:00 15,0 12,5 7 4 - - SW 1021,6 25
19.09.2018 08:00:00 12,9 11,7 4 2 - - SSW 1021,8 25
19.09.2018 07:00:00 12,6 11,2 0 0 - - N 1021,2 20
19.09.2018 06:00:00 13,1 11,8 11 6 - - S 1020,9 20
19.09.2018 05:00:00 13,3 11,7 4 2 - - SW 1021,0 20
19.09.2018 04:00:00 13,7 11,7 4 2 - - ESE 1020,5 20
19.09.2018 03:00:00 14,3 12,6 4 2 - - N 1020,3 20
19.09.2018 02:00:00 15,6 12,4 11 6 - - SW 1019,6 20
19.09.2018 01:00:00 16,3 14,0 11 6 - - SW 1019,6 20
19.09.2018 00:00:00 16,0 15,1 4 2 - - ESE 1019,2 20
18.09.2018 23:00:00 16,7 14,7 4 2 - - N 1018,7 20
18.09.2018 22:00:00 18,1 15,6 11 6 - - E 1018,5 20
18.09.2018 21:00:00 20,6 14,1 7 4 - - NNW 1017,6 25
18.09.2018 20:00:00 21,2 14,0 11 6 - - S 1016,3 25
18.09.2018 19:00:00 23,1 14,2 11 6 - - SSW 1015,4 25
18.09.2018 18:00:00 23,8 14,0 14 8 - - SSW 1015,3 25
18.09.2018 17:00:00 24,3 12,7 14 8 - - SW 1015,2 25
18.09.2018 16:00:00 26,9 12,0 18 10 - - SW 1014,6 25
18.09.2018 15:00:00 25,4 12,3 14 8 - - WSW 1015,5 25
18.09.2018 14:00:00 25,6 13,1 22 12 - - WSW 1016,0 25
18.09.2018 13:00:00 24,4 14,0 11 6 - - SSW 1016,4 25
18.09.2018 12:00:00 22,5 14,1 14 8 - - SW 1017,2 25
18.09.2018 11:00:00 20,5 13,9 14 8 - - SW 1017,7 25
18.09.2018 10:00:00 16,8 13,6 11 6 - - SW 1018,6 25
18.09.2018 09:00:00 13,5 10,9 7 4 - - WSW 1019,3 25
18.09.2018 08:00:00 11,7 10,3 7 4 - - SW 1019,3 25
18.09.2018 07:00:00 11,1 9,9 4 2 - - SSW 1019,1 18
18.09.2018 06:00:00 11,7 10,4 4 2 - - SSW 1018,8 18
18.09.2018 05:00:00 11,8 10,3 4 2 - - SSW 1018,7 20
18.09.2018 04:00:00 12,2 10,8 7 4 - - WSW 1018,7 20
18.09.2018 03:00:00 12,5 11,1 0 0 - - N 1018,6 25
18.09.2018 02:00:00 13,1 11,2 0 0 - - N 1018,5 25
18.09.2018 01:00:00 14,2 11,4 4 2 - - N 1018,4 25
18.09.2018 00:00:00 15,1 11,3 4 2 - - NNW 1018,5 25
17.09.2018 23:00:00 16,4 11,3 4 2 - - NW 1018,3 25
17.09.2018 22:00:00 19,4 11,5 7 4 - - E 1017,7 25
17.09.2018 21:00:00 20,3 10,0 7 4 - - ESE 1017,6 25
17.09.2018 20:00:00 21,4 10,0 11 6 - - ESE 1017,1 30
17.09.2018 19:00:00 23,6 8,5 7 4 - - E 1016,5 30
17.09.2018 18:00:00 24,9 6,4 4 2 - - N 1016,4 35
17.09.2018 17:00:00 25,3 4,3 7 4 - - S 1016,8 35
17.09.2018 16:00:00 24,8 4,4 7 4 - - WSW 1017,5 35

tt = Température de l'air
td = dewpoint
ff = Vitesse du vent
fx = gusts
dd = Direction du vent
ppp = reduced air pressure
vv = visibility

stations d'obs. à proximité